TimeEST,TemperatureF,Dew PointF,Humidity,Sea Level PressureIn,VisibilityMPH,Wind Direction,Wind SpeedMPH,Gust SpeedMPH,PrecipitationIn,Events,Conditions,WindDirDegrees,DateUTC
12:23 AM,57.2,-9999,N/A,29.79,10.0,SSW,9.2,-,0.00,,Overcast,200,2011-11-27 05:23:00
12:54 AM,57.9,-9999,N/A,29.78,10.0,SSW,11.5,18.4,0.00,Rain,Light Rain,210,2011-11-27 05:54:00
1:54 AM,50.0,-9999,N/A,29.79,9.0,WNW,12.7,-,0.05,Rain,Light Rain,290,2011-11-27 06:54:00
3:54 AM,45.0,-9999,N/A,29.83,10.0,WNW,11.5,-,0.02,Rain,Light Rain,290,2011-11-27 08:54:00
4:54 AM,44.1,-9999,N/A,29.82,10.0,WNW,9.2,-,0.07,Rain,Light Rain,300,2011-11-27 09:54:00
5:54 AM,44.1,-9999,N/A,29.82,10.0,WNW,5.8,-,0.05,Rain,Light Rain,300,2011-11-27 10:54:00
6:13 AM,44.6,-9999,N/A,29.83,10.0,WNW,8.1,-,0.01,Rain,Light Rain,300,2011-11-27 11:13:00
6:54 AM,44.1,41.0,89,29.84,10.0,WNW,9.2,-,0.02,Rain,Light Rain,290,2011-11-27 11:54:00
7:54 AM,44.1,41.0,89,29.86,7.0,WNW,5.8,-,0.07,Rain,Light Rain,300,2011-11-27 12:54:00
8:10 AM,44.6,41.0,87,29.85,10.0,WNW,3.5,-,0.01,Rain,Light Rain,300,2011-11-27 13:10:00
8:54 AM,44.1,41.0,89,29.88,9.0,West,5.8,-,0.03,Rain,Light Rain,280,2011-11-27 13:54:00
10:54 AM,44.1,41.0,89,29.91,5.0,NW,10.4,-,0.03,Rain,Light Rain,320,2011-11-27 15:54:00
11:11 AM,44.6,41.0,87,29.91,5.0,NW,9.2,-,0.01,Rain,Light Rain,320,2011-11-27 16:11:00
11:33 AM,44.6,41.0,87,29.91,5.0,NW,12.7,-,0.02,Rain,Light Rain,310,2011-11-27 16:33:00
11:54 AM,44.1,41.0,89,29.91,7.0,NW,10.4,-,0.04,Rain,Light Rain,320,2011-11-27 16:54:00
12:54 PM,44.1,41.0,89,29.91,10.0,NW,12.7,-,0.03,Rain,Light Rain,320,2011-11-27 17:54:00
1:54 PM,43.0,39.2,86,29.92,10.0,NW,12.7,-,0.03,Rain,Light Rain,320,2011-11-27 18:54:00
2:54 PM,43.0,39.2,86,29.94,10.0,NW,9.2,-,0.03,Rain,Light Rain,320,2011-11-27 19:54:00
3:33 PM,42.8,39.2,87,29.94,9.0,NNW,10.4,-,0.03,Rain,Light Rain,340,2011-11-27 20:33:00
3:48 PM,42.8,39.2,87,29.95,10.0,NNW,11.5,-,0.04,Rain,Light Rain,340,2011-11-27 20:48:00
3:54 PM,43.0,39.2,86,29.96,10.0,NNW,11.5,-,0.04,Rain,Light Rain,340,2011-11-27 20:54:00
4:54 PM,42.1,39.2,90,29.99,10.0,NNW,10.4,-,0.01,Rain,Light Rain,330,2011-11-27 21:54:00
5:54 PM,41.0,37.4,87,30.00,10.0,North,11.5,-,0.00,,Overcast,350,2011-11-27 22:54:00
6:13 PM,39.2,37.4,93,30.02,10.0,NNW,8.1,-,N/A,,Overcast,340,2011-11-27 23:13:00
6:46 PM,39.2,37.4,93,30.02,5.0,NNW,11.5,-,N/A,,Overcast,340,2011-11-27 23:46:00
6:54 PM,39.9,37.4,91,30.03,6.0,North,10.4,-,N/A,,Overcast,350,2011-11-27 23:54:00
7:54 PM,39.9,37.4,91,30.06,10.0,NNW,9.2,-,N/A,,Overcast,330,2011-11-28 00:54:00
8:06 PM,39.2,39.2,100,30.06,10.0,NW,6.9,-,N/A,,Overcast,320,2011-11-28 01:06:00
8:54 PM,39.9,39.9,100,30.06,10.0,North,5.8,-,N/A,,Overcast,360,2011-11-28 01:54:00
9:05 PM,39.2,39.2,100,30.05,10.0,North,9.2,-,N/A,,Overcast,360,2011-11-28 02:05:00
9:16 PM,39.2,39.2,100,30.05,10.0,North,10.4,18.4,N/A,,Overcast,360,2011-11-28 02:16:00
9:23 PM,39.2,39.2,100,30.05,10.0,North,10.4,-,N/A,,Overcast,10,2011-11-28 02:23:00
9:54 PM,39.9,39.9,100,30.06,10.0,North,8.1,-,N/A,,Overcast,10,2011-11-28 02:54:00
10:46 PM,39.2,39.2,100,30.06,10.0,North,6.9,-,N/A,,Overcast,360,2011-11-28 03:46:00
10:54 PM,39.9,39.0,97,30.07,10.0,North,8.1,-,N/A,,Overcast,10,2011-11-28 03:54:00
11:54 PM,39.9,39.9,100,30.07,10.0,North,8.1,-,N/A,,Overcast,360,2011-11-28 04:54:00